Orbital Elements
Epoch 2022 Jan. 21.0 TT = JDT 2459600.5
T 2022 Jan. 13.68381 TT Rudenko
q 3.0949260 (2000.0) P Q
n 0.10406761 Peri. 163.94310 -0.24118430 +0.95520502
a 4.4763669 Node 91.85825 -0.90821105 -0.15987501
e 0.3086076 Incl. 9.88050 -0.34202753 -0.24904489
P 9.47
From 687 observations 1993 June 8-2021 Mar. 7, mean residual 0".9.
Nongravitational parameters A1 = +0.04, A2 = +0.0162.
|